Flag for Taiwan Weather past 2 weeks in Kaohsiung, Taiwan

Now
82 °F

Passing clouds.


Feels Like: 88 °F
Forecast: 78 / 90 °F
Wind: 5 mph from Northeast

Location: Kaohsiung International Airport

Current Time: Aug 31, 2014 at 8:30:42 AM

Latest Report: Aug 31, 2014 at 7:30 AM


Visibility: N/A

Pressure: 29.83 "Hg

Humidity: 74%

Dew point: 73 °F

Location of KaohsiungLocation

Historic Weather in Kaohsiung — Graph

°F

Kaohsiung temperature yesterday

Maximum temperature yesterday: 91 °F (at 1:00 PM)
Minimum temperature yesterday: 79 °F (at 3:00 AM)
Average temperature yesterday: 85 °F

Past Weeks' High & Low Weather Summary

 TemperatureHumidityPressure
High93 °F (Aug 26, 12:00 PM)94% (Aug 18, 2:00 AM)29.95 "Hg (Aug 18, 2:00 AM)
Low75 °F (Aug 21, 5:00 AM)55% (Aug 23, 9:30 AM)29.71 "Hg (Aug 17, 3:30 PM)
Average85 °F77%29.84 "Hg
* Reported Aug 16 7:00 AM — Aug 31 7:30 AM, Kaohsiung, Weather by CustomWeather, © 2014

Note: Actual official high and low records may vary slightly from our data, if they occured in-between our weather recording intervals... More about our weather records

Advertising

Kaohsiung weather history for previous 24 hours

 ConditionsComfort  
Time TempWeatherWind HumidityBarometerVisibility
7:30 AM
Aug 31
82 °FPassing clouds.5 mph74%29.83 "HgN/A
7:00 AM81 °FPassing clouds.6 mph79%29.83 "HgN/A
6:30 AM79 °FPassing clouds.5 mph84%29.83 "HgN/A
6:00 AM77 °FPassing clouds.2 mph89%29.83 "HgN/A
5:00 AM79 °FPassing clouds.5 mph89%29.83 "HgN/A
4:00 AM79 °FPassing clouds.6 mph84%29.83 "HgN/A
3:00 AM81 °FPassing clouds.5 mph84%29.83 "Hg5 mi
2:00 AM81 °FPassing clouds.5 mph89%29.86 "Hg4 mi
1:00 AM81 °FPassing clouds.3 mph89%29.86 "Hg4 mi
12:00 AM81 °FPartly cloudy.5 mph89%29.86 "Hg4 mi
11:30 PM
Aug 30
81 °FPartly cloudy.6 mph89%29.86 "Hg5 mi
11:00 PM81 °FPartly cloudy.6 mph89%29.86 "Hg5 mi
10:30 PM82 °FPartly cloudy.3 mph79%29.86 "Hg5 mi
10:00 PM82 °FPartly cloudy.6 mph79%29.86 "HgN/A
9:30 PM81 °FPartly cloudy.6 mph84%29.86 "HgN/A
9:00 PM81 °FPartly cloudy.6 mph84%29.86 "HgN/A
8:30 PM82 °FPartly cloudy.5 mph79%29.86 "HgN/A
8:00 PM82 °FPassing clouds.5 mph79%29.86 "HgN/A
7:30 PM82 °FPassing clouds.5 mph79%29.86 "Hg5 mi
7:00 PM82 °FPartly cloudy.3 mph79%29.83 "Hg5 mi
6:30 PM82 °FPartly cloudy.5 mph79%29.83 "Hg5 mi
6:00 PM84 °FBroken clouds.7 mph79%29.83 "Hg6 mi
5:30 PM86 °FBroken clouds.2 mph75%29.83 "HgN/A
5:00 PM86 °FBroken clouds.5 mph75%29.83 "HgN/A
4:30 PM86 °FBroken clouds.6 mph75%29.83 "HgN/A
4:00 PM86 °FBroken clouds.7 mph70%29.83 "HgN/A
3:30 PM86 °FBroken clouds.8 mph75%29.83 "HgN/A
3:00 PM86 °FBroken clouds.8 mph75%29.83 "HgN/A
2:30 PM91 °FBroken clouds.10 mph63%29.83 "HgN/A
2:00 PM91 °FBroken clouds.9 mph63%29.83 "HgN/A
1:48 PM91 °FScattered clouds.10 mph63%29.83 "HgN/A
1:30 PM91 °FScattered clouds.12 mph63%29.86 "HgN/A
1:00 PM91 °FBroken clouds.12 mph59%29.86 "HgN/A
12:30 PM90 °FBroken clouds.10 mph67%29.86 "HgN/A
12:00 PM90 °FBroken clouds.10 mph67%29.89 "HgN/A
11:30 AM90 °FBroken clouds.10 mph63%29.89 "HgN/A
11:00 AM90 °FBroken clouds.10 mph67%29.89 "HgN/A
10:30 AM90 °FBroken clouds.12 mph63%29.89 "HgN/A
10:00 AM90 °FBroken clouds.8 mph63%29.89 "HgN/A
9:30 AM90 °FBroken clouds.5 mph63%29.89 "HgN/A
9:00 AM88 °FPartly sunny.6 mph66%29.89 "HgN/A
8:30 AM86 °FPartly sunny.6 mph70%29.89 "HgN/A
8:00 AM86 °FPassing clouds.6 mph70%29.89 "HgN/A
Weather by CustomWeather, © 2014

See weather overviewHow to use our weather pages